GSAT0212 (GALILEO 16)

Last updated on Wed Nov 20 2024 00:02:29 GMT+0000 (Coordinated Universal Time)

1 41860U 16069B 24323.74795129 .00000034 00000+0 00000+0 0 9994 2 41860 55.1640 117.0265 0001943 35.3421 324.6424 1.70474536 49846
UTC large
Height (km)
Speed (km/s)
/
Latitude / Longitude
Inclination (degrees)
Orbital Period (minutes)
Azimuth
Elevation
Range (km)
Doppler Factor

Next 0 passes for location: London (51.5072 / 0.1276)

Sorry there are no passes over London.